CZ-4 DEB

Satellite information

Favourite Embed

Satellite Type and Status

DEBRISIN ORBIT

Key statistics

Satellite CZ-4 DEB at a glance.

Uptime

12835

Days in orbit

Revolutions

≈ 14.3

Per day

Orbit

SSO

Sun Synchronous Orbit

Inclination

98.6

Latest

Satellite identification and parameters

Extended collection of information and parameters for CZ-4 DEB.

Object identification

Identified? True

Debris? True

Object name: CZ-4 DEB

International designator: 1990-081CG

Object number (NORAD): 20974

Object ID (CCSDS): 20974

Country: PEOPLES REPUBLIC OF CHINA (PRC)

Current information (Y/N): Y

RCS size: SMALL

Orbital parameters

Period: 100.437 minutes

Inclination: 98.5536 deg

SMA: 7157.408 km

Apoapsis: 788.924 km

Periapsis: 769.622 km

RAAN: 293.235 deg

Eccentricy: 0.00134838

Argument of periapsis: 323.7122 deg

Mean anomaly: 90.964 deg

Mean motion: 14.33735722 rev/day

Mean motion (dot): 0.00002573 rev/day2

B* drag term: 0.00094112411 1/REarth

Two-line elements (TLE)

Creation date: Oct. 24, 2025, 2:48 a.m.

Reference frame: TEME

Reference center: EARTH

Epoch: Oct. 23, 2025, 11:06 p.m. UTC

TLE line 0: 0 CZ-4 DEB

TLE line 1: 1 20974U 90081CG 25296.96291565 .00002573 00000-0 94112-3 0 9994

TLE line 2: 2 20974 98.5536 293.2350 0013484 323.7122 90.9640 14.33735722815890

Live tracking on map

Real-time ground track for satellite CZ-4 DEB.

In-orbit conjunctions

A list of the most updated potential collisions computed for object CZ-4 DEB.

Target Orbit TCA Probability of collision Miss distance Type
CZ-6A DEB LEO 2025-02-20 17:54:52 0.003018312 200.0 (m) DEBRIS
SL-8 R/B LEO 2024-09-20 18:37:02 0.000244301 477.0 (m) ROCKET BODY

Associated space launch

Chinese polar orbiting meteorological satellite

CZ-4 DEB was lifted into orbit during the mission ‘Long March 4A | Feng Yun 1B’, on board a Long March 4A space rocket.

The launch took place on Sept. 3, 1990, 12:53 a.m. from Launch Complex 7.

For more information about the launch, click the button.

Launch to space Long March 4A | Feng Yun 1B
Long March 4A | Feng Yun 1B

Agency: N/A

Status: Launch Successful

Launch date: Sept. 3, 1990, 12:53 a.m. UTC

Rocket: Long March 4A

Launch pad: Launch Complex 7

Location: Taiyuan Satellite Launch Center, People's Republic of China

...

Latest news about this satellite

There are no fresh news available about this satellite. Check back as we update our databases every day.


Newsletter sign-up

Weekly statistics, charts and insights to help you stay on top of the space industry.